Regional Weather Roundup
Issued by NWS

Home | Current Version | Previous Version | Graphics & Text | Print | Product List | Glossary Off
Versions: 1 2 3 4 5 6 7 8 9 10 11 12 13 14 15 16 17 18 19 20 21 22 23 24 25 26 27 28 29 30 31 32 33 34 35 36 37 38 39 40 41 42 43 44 45 46 47 48 49 50

000
ASUS43 KMKX 011521
RWRWI

WISCONSIN REGIONAL WEATHER ROUNDUP
NATIONAL WEATHER SERVICE MILWAUKEE/SULLIVAN WI
1000 AM CDT SAT OCT 01 2016

NOTE: "FAIR" INDICATES FEW OR NO CLOUDS BELOW 12,000 FEET WITH NO
SIGNIFICANT WEATHER AND/OR OBSTRUCTIONS TO VISIBILITY.

WIZ001-002-006>008-014>016-023>028-011600-
NORTHWEST WISCONSIN

CITY           SKY/WX    TMP DP  RH WIND       PRES   REMARKS
SUPERIOR ARPT  CLOUDY    54  54 100 CALM      30.24S FOG
ASHLAND        CLOUDY    55  55 100 E10       30.23S
HAYWARD        PTSUNNY   59  52  77 NE6       30.21F
SIREN          CLOUDY    56  52  87 NE5       30.22R
CUMBERLAND     CLOUDY    55  52  88 NE7       30.20S
RICE LAKE      PTSUNNY   60  52  74 NE6       30.21S
CHETEK         NOT AVBL
LADYSMITH      CLOUDY    59  54  81 N5        30.21S
EAU CLAIRE     CLOUDY    58  53  84 NE6       30.17S
MENOMONIE      MOSUNNY   58  53  84 N5        30.18S
NEW RICHMOND   SUNNY     61  54  77 NE5       30.18F
OSCEOLA        SUNNY     60  57  92 CALM      30.22S
$$

WIZ003>005-009-010-017-018-011600-
NORTH CENTRAL WISCONSIN

CITY           SKY/WX    TMP DP  RH WIND       PRES   REMARKS
MANITOWISH WTR NOT AVBL
ARBOR VITAE    CLOUDY    57  53  87 NE3       30.20S
WOODRUFF       CLOUDY    57  53  87 NE3       30.20S
RHINELANDER    CLOUDY    57  52  83 NE7       30.20S
EAGLE RIVER    PTSUNNY   56  53  89 CALM      30.20S
LAND O LAKES   CLOUDY    56  52  86 N5        30.22F
PHILLIPS       CLOUDY    55  52  92 NE5       30.20S
TOMAHAWK       CLOUDY    55  51  85 CALM      30.19F
MEDFORD        CLOUDY    56  56 100 NE3       30.17S
MERRILL        CLOUDY    58  54  86 NE8       30.19R
$$

WIZ029-030-035-036-043>047-011600-
CENTRAL WISCONSIN

CITY           SKY/WX    TMP DP  RH WIND       PRES   REMARKS
WAUSAU         CLOUDY    58  53  84 VRB6      30.16R
MOSINEE        CLOUDY    57  55  94 N7        30.17R
MARSHFIELD     CLOUDY    61  53  75 NE9       30.15S
STEVENS POINT  CLOUDY    58  55  88 NE12      30.15S
WAUPACA        CLOUDY    62  59  88 N7        30.13F
WAUTOMA        NOT AVBL
WISC RAPIDS    CLOUDY    61  57  87 NE7       30.15R
CAMP DOUGLAS   CLOUDY    59  57  94 NE7       30.12S
$$

WIZ011>013-019>022-031-037>040-048>050-011600-
NORTHEAST WISCONSIN

CITY           SKY/WX    TMP DP  RH WIND       PRES   REMARKS
ANTIGO         CLOUDY    56  54  94 NE9       30.18R
SHAWANO        CLOUDY    61  57  86 NE7       30.14F
OCONTO         NOT AVBL
STURGEON BAY   CLOUDY    62  55  77 E9G20     30.13S
GREEN BAY      CLOUDY    64  60  87 NE15      30.11F
MANITOWOC      CLOUDY    60  57  89 MISG      30.10F
APPLETON       CLOUDY    59  57  94 NE10      30.10S
CLINTONVILLE   CLOUDY    61  55  82 NE10      30.13F
OSHKOSH        CLOUDY    59  57  93 NE10      30.09F FOG
$$

WIZ032>034-041-042-053>061-011600-
SOUTHWEST WISCONSIN

CITY           SKY/WX    TMP DP  RH WIND       PRES   REMARKS
LA CROSSE      CLOUDY    63  56  78 N7        30.12F
SPARTA         CLOUDY    59  56  88 NE7       30.13F
VIROQUA        CLOUDY    58  58  99 NE7       30.11F
BOSCOBEL       CLOUDY    62  58  86 N7        30.10S
PRAIRIE DU CHI CLOUDY    61  56  84 N5        30.10R
PLATTEVILLE    CLOUDY    60  60 100 N9        30.07F
$$

WIZ056-057-062-063-064-067-068-011600-
SOUTH CENTRAL WISCONSIN

CITY           SKY/WX    TMP DP  RH WIND       PRES   REMARKS
REEDSBURG      NOT AVBL
BARABOO/DELLS  DRIZZLE   58  56  95 NE7       30.10S
LONE ROCK      CLOUDY    61  58  90 NE12      30.10R
MINERAL POINT  CLOUDY    61  61 100 NE8       30.08S
MADISON        CLOUDY    60  58  92 NE12      30.08R
MIDDLETON      CLOUDY    61  61 100 NE9       30.09S
WATERTOWN      CLOUDY    59  59 100 N6        30.07S
MONROE         CLOUDY    61  59  94 N9        30.07R
JANESVILLE     CLOUDY    63  61  94 NE7       30.05S
$$

WIZ051-052-058>065-066-070>072-011600-
SOUTHEAST WISCONSIN

CITY           SKY/WX    TMP DP  RH WIND       PRES   REMARKS
MILWAUKEE      CLOUDY    60  57  89 NE8       30.07R
WAUKESHA       NOT AVBL
MILWAUKEE/TIMM RAIN      57  55  94 NE7       30.07S
RACINE         LGT RAIN  61  57  87 NE12      30.06S
BURLINGTON     CLOUDY    58  57  98 NE7       30.06R FOG
KENOSHA        CLOUDY    61  58  90 NE10      30.05R
FOND DU LAC    CLOUDY    61  58  90 NE12      30.09F
SHEBOYGAN      CLOUDY    59  56  89 NE10      30.08F
WEST BEND      CLOUDY    68  68 100 NE8       30.08R
JUNEAU         CLOUDY    59  57  92 N10G16    30.09S
$$

LSZ147-162-011600-
LAKE SUPERIOR

STATION/POSITION TIME  TEMP    WIND        PRES    WAVE
                       AIR SEA DIR/SP/G            HT/PER
                 (UTC) (F)     (DEG/KT/KT) (MB)    (FT/S)
W MID LAKE BUOY  1450   57 56   50/ 10/ 10 1023.0F   1/ 3
DEVILS ISLAND    1500   54      70/  4/  5 1023.9S
SAXON HARBOR     1400   53     180/  3/  4 1023.0
$$

LMZ867-665-643>646-011600-
LAKE MICHIGAN

STATION/POSITION TIME  TEMP    WIND        PRES    WAVE
                       AIR SEA DIR/SP/G            HT/PER
                 (UTC) (F)     (DEG/KT/KT) (MB)    (FT/S)
CHAMBERS ISLAND  1400   61      20/ 15/ 17 1020.3S
S GREEN BAY BUOY 1500   62 62   50/ 14/ 17 1019.4F
N MID LAKE BUOY  1450   61 64  110/ 17/ 21 1019.9S   4/ 5
NORTHPORT PIER   1400   63      80/ 14/ 17 1020.7F
SISTER BAY       1438   64     120/ 10/ 15   N/A
KEWAUNEE LAKESHO 1400   62      70/  7/ 12 1019.1F
SHEBOYGAN LAKESH 1500   59      50/ 13/ 14 1018.3S
PORT WASHINGTON  1440   60      60/ 12/ 16 1019.0F
ATWATER BUOY     1500   60 58   50/ 14/ 17 1017.8S
MILWAUKEE LAKESH 1510   58      30/ 12/ 13   N/A
S MID LAKE BUOY  1450   60 67   80/ 16/ 17 1016.3F   3/ 4
KENOSHA   LAKESH 1500   61      50/ 20/ 23 1016.9S
$$

TC  - TEMPERATURE IN CELSIUS
VSB - VISIBILITY IN STATUTE MILES
WCI - WIND CHILL INDEX
HX  - HEAT INDEX





USA.gov is the U.S. government's official web portal to all federal, state and local government web resources and services.